Tracking 35331 objects as of 15-Sep-2026
HD Live streaming from Space Station
objects crossing your sky now

STARLINK-30329

Track STARLINK-30329 now!
10-day predictions
STARLINK-30329 is classified as:


NORAD ID: 57635
Int'l Code: 2023-122D
Launch date: August 17, 2023
Source: United States (US)
Launch site: AIR FORCE EASTERN TEST RANGE (AFETR)
Your satellite tracking list
Your tracking list is empty




NASA's NSSDC Master Catalog

Two Line Element Set (TLE):
1 57635U 23122D   26257.59184369  .00000561  00000-0  29924-4 0  9995
2 57635  43.0022 105.9772 0001251 262.0131  98.0579 15.27577587171094
Source of the keplerian elements: AFSPC